Dewpoint
73 72 71 71 71 71 69 69 68 67 66 66 66 65 64 63 60 60 60 60 62 63 62 62 62 61 62 63 62 62 61 61 61
73 72 71 70 70 70 67 67 67 66 66 65 64 63 61 59 59 59 60 59 63 62 63 63 63 62 62 62 62 61 61 60 61
73 71 69 69 68 67 67 67 66 65 65 64 63 62 61 58 59 60 59 62 63 62 62 62 62 62 61 61 61 61 61 60 60
72 70 69 68 68 68 67 66 65 65 64 63 62 62 61 58 57 57 59 63 61 61 61 61 61 61 62 61 61 60 60 60 60
70 68 68 68 68 66 64 67 66 65 63 63 62 62 60 57 57 58 59 62 60 61 60 61 60 60 60 60 60 60 58 58 59
68 66 67 67 67 66 64 66 66 65 64 63 61 59 56 56 56 57 63 62 61 60 60 59 59 59 59 58 58 58 58 58 57
67 65 65 66 66 65 63 66 65 62 59 58 59 56 55 56 55 57 63 60 60 60 60 59 58 58 58 58 58 57 57 57 57
67 66 64 64 63 60 64 64 61 60 58 57 56 56 56 56 55 60 62 60 59 59 59 58 58 58 57 57 57 57 57 56 56
66 64 63 63 63 63 63 61 59 57 56 56 55 56 56 56 55 59 61 61 59 59 58 58 57 57 57 57 57 56 56 56 56
65 63 62 62 63 61 61 59 57 56 56 56 55 56 56 56 56 58 60 61 59 58 58 58 57 57 57 57 56 56 56 55 55
65 63 62 61 62 60 59 58 56 55 55 55 56 56 56 56 56 58 59 60 59 58 58 57 57 57 57 56 56 55 55 55 55
64 63 62 61 59 58 57 56 55 55 55 54 55 55 55 56 56 55 56 55 57 57 58 57 57 57 57 56 55 55 55 55 54
64 62 61 60 56 57 56 55 54 54 54 53 54 54 54 54 53 54 54 55 54 56 57 57 56 56 56 56 55 54 54 54 54
64 62 61 58 56 56 55 55 54 53 53 52 52 52 52 52 51 52 52 53 54 55 56 57 57 56 55 55 55 54 53 53 53
63 61 60 58 55 54 55 54 53 53 51 48 47 48 48 50 51 51 50 51 51 52 52 54 54 56 55 55 54 53 52 51 51
58 61 59 58 54 53 54 53 52 49 48 45 41 38 42 46 47 48 48 48 48 49 50 51 52 52 56 54 53 53 51 50 49
58 61 59 57 55 53 53 53 51 47 49 50 45 45 45 39 40 42 45 47 46 46 47 48 49 50 50 51 51 51 50 50 48
54 61 59 58 54 52 53 52 51 48 49 49 47 44 45 42 35 38 41 44 43 43 43 44 46 47 48 48 47 46 45 46 46
55 61 60 58 55 54 52 52 51 50 48 49 36 42 43 45 41 35 36 38 40 41 40 39 43 45 46 46 46 46 43 43 44
54 60 60 58 55 54 53 52 51 50 49 48 37 34 33 35 39 39 39 34 36 39 39 35 35 39 43 45 44 46 44 41 41
Lifted_Index
-2 -1 -1 -0 1 1 2 2 3 4 4 5 6 7 7 8 8 8 9 9 9 9 10 10 10 10 9 9 9 8 8 8 8
-2 -1 -0 1 1 2 3 3 4 4 5 6 7 7 8 8 8 8 9 9 9 9 9 9 10 10 9 9 9 9 9 9 9
-2 -1 0 1 2 3 3 4 4 5 5 6 7 8 9 9 9 8 9 9 9 9 9 9 9 10 10 10 10 10 10 10 10
-1 -1 1 2 2 3 3 4 5 5 6 7 8 8 9 9 9 9 9 9 9 9 9 10 10 10 10 10 10 10 10 10 10
-1 -0 1 1 3 4 4 4 5 5 6 7 8 9 9 9 9 9 9 9 9 10 10 10 11 11 11 11 11 11 11 11 11
-0 0 1 1 3 4 5 5 5 6 7 8 8 9 9 9 9 9 8 9 9 10 10 11 11 11 12 12 12 12 12 12 12
0 0 0 1 3 4 5 5 5 7 8 9 9 9 9 9 9 8 8 9 9 10 10 11 11 11 12 12 12 12 12 12 12
-0 0 0 1 3 4 5 5 7 8 9 9 10 10 10 9 9 9 8 9 9 10 10 11 11 12 12 12 12 13 13 13 13
-0 0 1 1 2 4 5 6 7 9 9 10 10 10 10 10 9 9 9 9 10 10 10 11 11 12 12 12 13 13 13 13 13
-0 0 1 1 2 4 5 6 8 9 10 10 10 10 10 10 10 10 9 10 10 10 10 11 11 12 12 12 13 13 13 13 13
-0 0 0 1 2 4 5 7 8 9 10 10 10 10 10 10 10 10 10 10 10 10 11 11 11 12 12 12 13 13 13 13 13
-0 -0 -0 0 1 3 5 7 8 9 10 10 10 10 11 11 11 11 11 11 11 11 11 11 11 12 12 12 13 13 13 14 14
-0 -0 -0 0 1 3 5 7 8 9 10 10 10 10 11 11 11 12 12 12 12 11 11 11 12 12 12 12 13 13 13 14 14
0 -0 -0 0 1 3 5 7 8 9 9 10 10 10 11 11 11 12 12 13 12 12 12 12 12 12 12 12 13 13 14 14 14
1 0 -0 -0 1 2 4 6 8 8 9 10 10 11 11 11 12 12 13 13 13 13 13 13 13 12 12 13 13 13 14 14 14
2 1 0 -0 0 2 3 6 7 8 9 10 10 11 11 12 12 12 13 13 13 13 13 13 13 13 13 13 13 13 14 14 15
3 2 0 -0 1 2 3 5 6 7 9 10 11 11 11 12 12 12 12 13 13 13 13 13 13 13 14 14 14 14 14 15 15
3 2 1 0 1 2 2 3 5 6 8 10 11 11 11 11 12 12 12 12 12 13 13 13 14 14 14 15 16 16 16 16 16
4 3 2 1 1 1 2 3 4 5 6 8 10 11 12 12 11 11 12 12 12 13 13 14 15 15 15 15 16 17 17 17 17
4 4 3 1 0 1 1 2 4 5 5 6 9 11 12 12 11 11 12 12 12 13 13 15 16 16 15 15 16 17 17 17 17